period_start,C,m1,H,J0,J1,J2,J3,J4,J5,JA,JB,JC,JD,JJ,JK,JN,#
2018-06-17 00:04:19,-0.01,2.31,0.00,20.97,24.62,27.73,14.14,49.14,1021.01,2037.28,2516.94,2432.00,2825.98,599.92,602.72,21.00,0000 0000 0000 0000 000000
2018-06-17 00:09:20,0.03,2.31,0.00,21.00,24.63,27.74,14.14,49.14,1021.01,2037.15,2516.46,2432.00,2825.51,599.92,602.56,21.05,0000 0000 0000 0000 000000
2018-06-17 00:14:21,0.00,2.31,0.00,21.02,24.65,27.73,14.16,49.07,1021.01,2037.18,2516.02,2431.98,2825.10,599.88,602.60,21.10,0000 0000 0000 0000 000000
2018-06-17 00:19:22,0.00,2.31,0.00,21.04,24.65,27.74,14.13,49.08,1021.01,2037.08,2516.00,2431.90,2825.01,599.90,602.51,21.15,0000 0000 0000 0000 000000
2018-06-17 00:24:24,0.00,2.31,0.00,21.06,24.67,27.77,14.06,49.02,1021.01,2037.03,2515.99,2431.73,2825.01,599.89,602.47,21.20,0000 0000 0000 0000 000000
2018-06-17 00:29:25,0.00,2.31,0.00,21.07,24.67,27.78,14.16,49.08,1021.01,2037.01,2515.99,2431.52,2825.00,599.94,602.40,21.26,0000 0000 0000 0000 000000
2018-06-17 00:34:26,0.01,2.31,0.00,21.09,24.69,27.80,14.09,49.06,1020.99,2037.00,2515.99,2431.28,2825.00,599.86,602.16,21.31,0000 0000 0000 0000 000000
2018-06-17 00:39:28,0.00,2.31,0.00,21.09,24.70,27.79,14.11,49.02,1020.99,2037.00,2515.98,2431.11,2824.99,599.82,602.34,21.36,0000 0000 0000 0000 000000
2018-06-17 00:44:29,0.04,2.31,0.00,21.10,24.70,27.83,14.20,49.05,1021.01,2037.00,2515.39,2431.01,2824.50,600.44,602.88,21.41,0000 0000 0000 0000 000000
2018-06-17 00:49:30,0.00,2.31,0.00,21.11,24.72,27.83,14.11,49.17,1021.01,2037.00,2514.99,2430.98,2824.01,600.03,602.59,21.46,0000 0000 0000 0000 000000
2018-06-17 00:54:31,0.00,2.32,0.00,21.12,24.72,27.83,14.19,49.13,1021.01,2037.00,2514.82,2430.83,2824.00,600.05,602.59,21.51,0000 0000 0000 0000 000000
2018-06-17 00:59:33,0.04,2.32,0.00,21.13,24.73,27.84,14.12,49.15,1021.01,2036.99,2514.13,2430.22,2823.96,599.77,602.22,21.56,0000 0000 0000 0000 000000
2018-06-17 01:04:34,0.00,2.32,0.00,21.14,24.75,27.84,14.09,49.13,1021.01,2036.99,2514.01,2430.03,2823.84,600.02,602.39,21.61,0000 0000 0000 0000 000000
2018-06-17 01:09:35,0.01,2.32,0.00,21.14,24.75,27.86,14.15,49.21,1021.01,2036.99,2513.99,2430.00,2823.19,600.27,602.59,21.66,0000 0000 0000 0000 000000
2018-06-17 01:14:37,0.00,2.32,0.00,21.17,24.76,27.87,14.11,49.27,1021.01,2036.99,2513.97,2430.00,2823.01,600.03,602.36,21.71,0000 0000 0000 0000 000000
2018-06-17 01:19:38,0.01,2.32,0.00,21.17,24.77,27.89,14.14,49.16,1021.01,2036.98,2513.77,2429.99,2823.00,600.03,602.34,21.76,0000 0000 0000 0000 000000
2018-06-17 01:24:40,0.02,2.32,0.00,21.18,24.78,27.89,14.10,49.19,1021.01,2036.98,2513.14,2429.91,2822.98,600.01,602.42,21.81,0000 0000 0000 0000 000000
2018-06-17 01:29:41,0.03,2.32,0.00,21.18,24.79,27.90,14.11,49.18,1021.01,2036.98,2513.01,2429.48,2822.71,599.81,602.16,21.86,0000 0000 0000 0000 000000
2018-06-17 01:34:42,0.02,2.32,0.00,21.19,24.80,27.90,14.15,49.20,1021.00,2036.95,2512.98,2429.03,2822.06,600.03,602.40,21.91,0000 0000 0000 0000 000000
2018-06-17 01:39:43,-0.01,2.32,0.00,21.20,24.80,27.90,14.14,49.13,1020.88,2036.81,2512.65,2429.00,2822.00,600.28,602.39,21.96,0000 0000 0000 0000 000000
2018-06-17 01:44:44,0.02,2.32,0.00,21.22,24.82,27.93,14.15,49.24,1020.80,2036.90,2512.08,2429.00,2822.00,600.11,602.13,22.01,0000 0000 0000 0000 000000
2018-06-17 01:49:46,-0.01,2.32,0.00,21.23,24.82,27.92,14.16,49.14,1020.77,2036.76,2512.01,2428.98,2821.95,600.15,602.21,22.06,0000 0000 0000 0000 000000
2018-06-17 01:54:47,0.02,2.32,0.00,21.24,24.83,27.92,14.09,49.06,1020.58,2036.70,2511.99,2428.72,2821.42,600.10,602.17,22.11,0000 0000 0000 0000 000000
2018-06-17 01:59:48,0.02,2.32,0.00,21.24,24.85,27.93,14.10,49.17,1020.53,2036.62,2511.94,2428.20,2821.05,599.92,601.83,22.16,0000 0000 0000 0000 000000
2018-06-17 02:04:49,0.01,2.33,0.00,21.26,24.85,27.96,14.13,49.11,1020.54,2036.59,2511.26,2428.02,2821.00,599.93,601.80,22.21,0000 0000 0000 0000 000000
2018-06-17 02:09:51,-0.00,2.33,0.00,21.27,24.87,27.96,14.12,49.15,1020.54,2036.49,2511.04,2428.01,2821.00,600.09,602.03,22.26,0000 0000 0000 0000 000000
2018-06-17 02:14:52,-0.02,2.32,0.00,21.27,24.87,27.96,14.15,49.26,1020.56,2036.19,2511.00,2428.00,2820.98,599.94,601.76,22.31,0000 0000 0000 0000 000000
2018-06-17 02:19:53,-0.00,2.32,0.00,21.29,24.88,27.97,14.24,49.15,1020.54,2036.07,2510.99,2427.97,2820.68,600.18,601.87,22.36,0000 0000 0000 0000 000000
2018-06-17 02:24:54,0.01,2.32,0.00,21.29,24.90,27.97,14.16,49.14,1020.52,2036.07,2510.85,2427.95,2820.25,599.96,601.73,22.41,0000 0000 0000 0000 000000
2018-06-17 02:29:55,0.02,2.33,0.00,21.32,24.90,27.98,14.07,49.22,1020.52,2036.04,2510.30,2427.82,2820.03,600.20,602.12,22.46,0000 0000 0000 0000 000000
2018-06-17 02:34:56,0.02,2.33,0.00,21.34,24.91,27.98,14.06,49.11,1020.52,2036.03,2510.01,2427.23,2820.00,599.70,601.37,22.51,0000 0000 0000 0000 000000
2018-06-17 02:39:58,0.00,2.33,0.00,21.35,24.92,27.99,14.10,49.27,1020.52,2036.04,2509.99,2427.03,2819.99,599.79,601.56,22.56,0000 0000 0000 0000 000000
2018-06-17 02:44:59,0.00,2.33,0.00,21.37,24.93,27.98,14.14,49.16,1020.49,2036.03,2509.87,2427.00,2819.88,600.00,601.54,22.61,0000 0000 0000 0000 000000
2018-06-17 02:50:00,0.02,2.33,0.00,21.39,24.95,27.98,14.09,49.22,1020.51,2036.01,2509.22,2427.00,2819.19,600.01,601.52,22.66,0000 0000 0000 0000 000000
2018-06-17 02:55:02,0.01,2.33,0.00,21.41,24.95,28.00,14.15,49.20,1020.52,2036.01,2509.02,2426.98,2819.01,600.00,601.51,22.71,0000 0000 0000 0000 000000
2018-06-17 03:00:03,0.02,2.33,0.00,21.43,24.97,27.99,14.09,49.16,1020.52,2036.00,2509.00,2426.69,2819.00,600.04,601.56,22.76,0000 0000 0000 0000 000000
2018-06-17 03:05:04,0.01,2.33,0.00,21.45,24.97,28.01,14.04,49.23,1020.52,2036.00,2508.99,2426.24,2818.99,599.72,601.26,22.81,0000 0000 0000 0000 000000
2018-06-17 03:10:05,0.01,2.33,0.00,21.47,24.99,28.01,14.18,49.31,1020.52,2036.00,2508.84,2426.03,2818.95,600.09,601.59,22.86,0000 0000 0000 0000 000000
2018-06-17 03:15:06,0.03,2.33,0.00,21.49,25.00,28.02,14.14,49.26,1020.52,2036.00,2508.14,2426.00,2818.36,600.24,601.62,22.91,0000 0000 0000 0000 000000
2018-06-17 03:20:08,0.00,2.33,0.00,21.51,25.02,28.03,14.10,49.21,1020.52,2035.99,2508.00,2425.99,2818.01,599.69,601.04,22.96,0000 0000 0000 0000 000000
2018-06-17 03:25:09,0.00,2.33,0.00,21.52,25.02,28.04,14.11,49.20,1020.51,2035.99,2508.00,2425.96,2818.00,600.18,601.58,23.01,0000 0000 0000 0000 000000
2018-06-17 03:30:10,0.01,2.33,0.00,21.54,25.05,28.03,14.14,49.32,1020.50,2035.98,2507.98,2425.66,2817.98,599.89,601.09,23.06,0000 0000 0000 0000 000000
2018-06-17 03:35:11,0.02,2.33,0.00,21.57,25.06,28.02,14.15,49.29,1020.49,2035.96,2507.87,2425.21,2817.89,599.99,601.25,23.11,0000 0000 0000 0000 000000
2018-06-17 03:40:13,0.03,2.34,0.00,21.59,25.07,28.03,14.12,49.28,1020.52,2035.91,2507.17,2425.02,2817.23,600.04,601.26,23.16,0000 0000 0000 0000 000000
2018-06-17 03:45:14,-0.00,2.34,0.00,21.61,25.09,28.02,14.06,49.17,1020.51,2035.84,2507.03,2425.00,2817.04,599.97,601.27,23.21,0000 0000 0000 0000 000000
2018-06-17 03:50:16,-0.04,2.34,0.00,21.63,25.11,28.07,14.05,49.17,1020.49,2035.56,2507.00,2425.00,2817.00,599.97,601.07,23.26,0000 0000 0000 0000 000000
2018-06-17 03:55:17,-0.03,2.33,0.00,21.66,25.12,28.04,14.12,49.16,1020.43,2035.19,2506.97,2424.97,2816.99,600.17,601.10,23.31,0000 0000 0000 0000 000000
2018-06-17 04:00:18,0.01,2.33,0.00,21.68,25.14,28.03,14.05,49.08,1020.33,2035.18,2506.92,2424.94,2816.98,600.19,601.10,23.36,0000 0000 0000 0000 000000
2018-06-17 04:05:20,0.02,2.33,0.00,21.69,25.15,28.06,14.12,49.24,1020.21,2035.05,2506.69,2424.72,2816.90,600.16,600.85,23.41,0000 0000 0000 0000 000000
2018-06-17 04:10:21,0.04,2.34,0.00,21.71,25.17,28.09,14.04,49.10,1020.08,2035.02,2506.22,2424.15,2816.42,599.83,600.50,23.46,0000 0000 0000 0000 000000
2018-06-17 04:15:22,0.00,2.34,0.00,21.72,25.19,28.15,14.04,49.17,1020.06,2035.01,2506.03,2424.04,2816.04,599.65,600.29,23.51,0000 0000 0000 0000 000000
2018-06-17 04:20:24,0.00,2.34,0.00,21.74,25.20,28.21,14.00,49.13,1020.06,2035.00,2506.01,2424.01,2816.00,599.62,600.31,23.56,0000 0000 0000 0000 000000
2018-06-17 04:25:25,0.00,2.34,0.00,21.75,25.22,28.20,14.06,49.14,1020.04,2035.00,2506.00,2424.00,2816.00,600.06,600.47,23.61,0000 0000 0000 0000 000000
2018-06-17 04:30:26,0.00,2.34,0.00,21.76,25.24,28.25,14.00,49.13,1020.04,2035.00,2505.98,2424.00,2816.00,599.77,600.33,23.66,0000 0000 0000 0000 000000
2018-06-17 04:35:28,0.00,2.34,0.00,21.78,25.25,28.28,14.04,49.25,1020.04,2034.98,2505.93,2423.98,2815.98,599.99,600.49,23.71,0000 0000 0000 0000 000000
2018-06-17 04:40:29,0.01,2.34,0.00,21.79,25.27,28.28,14.09,49.26,1020.04,2034.97,2505.65,2423.93,2815.91,599.69,600.23,23.76,0000 0000 0000 0000 000000
2018-06-17 04:45:30,0.02,2.34,0.00,21.81,25.28,28.32,14.15,49.37,1020.04,2034.97,2505.25,2423.79,2815.65,600.15,600.57,23.81,0000 0000 0000 0000 000000
2018-06-17 04:50:32,0.01,2.34,0.00,21.82,25.30,28.35,14.12,49.21,1020.04,2034.86,2505.08,2423.34,2815.17,600.59,600.99,23.86,0000 0000 0000 0000 000000
2018-06-17 04:55:33,-0.00,2.34,0.00,21.82,25.32,28.37,14.06,49.15,1020.02,2034.72,2505.02,2423.07,2815.04,599.86,600.30,23.91,0000 0000 0000 0000 000000
2018-06-17 05:00:34,-0.03,2.34,0.00,21.83,25.33,28.38,14.15,49.30,1020.01,2034.53,2505.00,2423.04,2815.01,600.02,600.53,23.96,0000 0000 0000 0000 000000
2018-06-17 05:05:36,0.01,2.34,0.00,21.84,25.35,28.42,14.09,49.28,1020.02,2034.49,2505.00,2423.01,2815.00,599.85,600.13,24.01,0000 0000 0000 0000 000000
2018-06-17 05:10:37,-0.02,2.34,0.00,21.87,25.37,28.42,14.08,49.34,1019.97,2034.20,2504.99,2423.00,2815.00,599.76,600.05,24.06,0000 0000 0000 0000 000000
2018-06-17 05:15:38,-0.01,2.34,0.00,21.88,25.38,28.43,14.09,49.16,1019.71,2034.09,2504.96,2423.00,2814.99,599.97,600.13,24.11,0000 0000 0000 0000 000000
2018-06-17 05:20:39,0.01,2.34,0.00,21.90,25.40,28.44,14.14,49.25,1019.71,2034.03,2504.72,2422.97,2814.80,600.29,600.30,24.16,0000 0000 0000 0000 000000
2018-06-17 05:25:40,0.06,2.34,0.00,21.91,25.42,28.47,14.16,49.23,1019.64,2034.00,2504.05,2422.35,2814.06,600.57,600.68,24.22,0000 0000 0000 0000 000000
2018-06-17 05:30:42,0.00,2.34,0.00,21.92,25.43,28.48,14.15,49.27,1019.58,2034.00,2503.96,2422.00,2813.95,600.40,600.21,24.27,0000 0000 0000 0000 000000
2018-06-17 05:35:43,0.02,2.34,0.00,21.94,25.45,28.50,14.10,49.27,1019.56,2034.00,2503.77,2421.99,2813.61,600.22,600.07,24.32,0000 0000 0000 0000 000000
2018-06-17 05:40:44,0.02,2.34,0.00,21.95,25.47,28.54,14.08,49.30,1019.55,2034.00,2503.22,2421.93,2813.09,600.20,600.20,24.37,0000 0000 0000 0000 000000
2018-06-17 05:45:45,0.02,2.34,0.00,21.97,25.48,28.55,14.10,49.24,1019.53,2033.99,2503.01,2421.57,2813.00,600.33,600.17,24.42,0000 0000 0000 0000 000000
2018-06-17 05:50:47,0.01,2.34,0.00,21.98,25.50,28.56,14.02,49.19,1019.44,2033.97,2503.00,2421.12,2813.00,599.81,599.57,24.47,0000 0000 0000 0000 000000
2018-06-17 05:55:48,0.00,2.34,0.00,22.00,25.52,28.59,14.11,49.25,1019.29,2033.96,2502.99,2421.03,2812.97,600.34,599.93,24.52,0000 0000 0000 0000 000000
2018-06-17 06:00:49,0.00,2.34,0.00,22.02,25.53,28.60,14.03,49.20,1019.24,2033.90,2502.95,2421.00,2812.83,599.98,599.49,24.57,0000 0000 0000 0000 000000
2018-06-17 06:05:51,-0.00,2.34,0.00,22.03,25.55,28.57,14.12,49.32,1019.21,2033.65,2502.68,2421.00,2812.27,600.11,599.57,24.62,0000 0000 0000 0000 000000
2018-06-17 06:10:52,-0.03,2.34,0.00,22.05,25.57,28.60,14.04,49.27,1019.21,2033.19,2502.11,2420.97,2812.01,599.97,599.46,24.67,0000 0000 0000 0000 000000
2018-06-17 06:15:53,-0.01,2.34,0.00,22.08,25.58,28.61,14.07,49.13,1019.23,2033.09,2502.00,2420.91,2812.00,600.36,599.92,24.72,0000 0000 0000 0000 000000
2018-06-17 06:20:55,0.01,2.34,0.00,22.10,25.60,28.57,14.07,49.15,1019.24,2033.03,2502.00,2420.49,2811.98,600.33,599.79,24.77,0000 0000 0000 0000 000000
2018-06-17 06:25:56,0.01,2.34,0.00,22.12,25.62,28.60,14.09,49.08,1019.23,2033.01,2501.97,2420.07,2811.90,599.96,599.03,24.82,0000 0000 0000 0000 000000
2018-06-17 06:30:57,0.02,2.34,0.00,22.15,25.63,28.60,14.05,49.14,1019.19,2033.00,2501.62,2420.00,2811.26,600.32,599.56,24.87,0000 0000 0000 0000 000000
2018-06-17 06:35:58,0.01,2.34,0.00,22.17,25.65,28.59,13.98,49.14,1019.10,2033.00,2501.10,2420.00,2811.01,599.62,598.85,24.92,0000 0000 0000 0000 000000
2018-06-17 06:41:00,0.00,2.35,0.00,22.19,25.67,28.61,14.08,49.12,1019.06,2033.00,2501.01,2419.99,2811.00,599.79,598.95,24.97,0000 0000 0000 0000 000000
2018-06-17 06:46:01,0.01,2.35,0.00,22.22,25.69,28.62,14.05,49.03,1019.07,2033.00,2500.98,2419.82,2810.95,599.91,599.00,25.02,0000 0000 0000 0000 000000
2018-06-17 06:51:03,0.02,2.35,0.00,22.24,25.71,28.62,14.03,49.06,1019.07,2033.00,2500.82,2419.27,2810.74,600.02,599.07,25.07,0000 0000 0000 0000 000000
2018-06-17 06:56:04,0.03,2.35,0.00,22.27,25.72,28.62,14.00,49.04,1019.08,2033.00,2500.21,2419.03,2810.11,599.51,598.47,25.12,0000 0000 0000 0000 000000
2018-06-17 07:01:05,-0.00,2.35,0.00,22.30,25.75,28.61,14.01,49.02,1019.29,2032.98,2500.03,2419.00,2810.01,600.31,599.21,25.17,0000 0000 0000 0000 000000
2018-06-17 07:06:06,-0.00,2.35,0.00,22.33,25.77,28.61,13.96,48.95,1019.52,2032.91,2500.02,2419.00,2810.00,600.11,599.01,25.22,0000 0000 0000 0000 000000
2018-06-17 07:11:07,-0.05,2.35,0.00,22.36,25.78,28.59,14.02,49.08,1019.49,2032.53,2500.01,2418.99,2809.99,600.02,598.98,25.27,0000 0000 0000 0000 000000
2018-06-17 07:16:08,-0.02,2.35,0.00,22.38,25.80,28.60,14.02,49.06,1019.54,2032.15,2500.00,2418.98,2809.98,600.26,599.15,25.32,0000 0000 0000 0000 000000
2018-06-17 07:21:09,-0.00,2.34,0.00,22.42,25.82,28.60,14.05,49.00,1019.55,2032.03,2500.00,2418.96,2809.92,600.18,599.13,25.37,0000 0000 0000 0000 000000
2018-06-17 07:26:11,0.00,2.34,0.00,22.46,25.84,28.58,13.98,49.02,1019.55,2032.01,2500.00,2418.94,2809.65,599.94,598.64,25.42,0000 0000 0000 0000 000000
2018-06-17 07:31:12,0.02,2.35,0.00,22.50,25.86,28.58,13.95,48.89,1019.55,2032.00,2500.00,2418.58,2809.18,600.11,598.88,25.47,0000 0000 0000 0000 000000
2018-06-17 07:36:13,0.02,2.35,0.00,22.53,25.88,28.60,14.00,48.98,1019.55,2032.00,2499.94,2418.24,2809.05,599.77,598.40,25.52,0000 0000 0000 0000 000000
2018-06-17 07:41:15,0.01,2.35,0.00,22.57,25.90,28.61,14.02,49.07,1019.55,2032.00,2499.74,2418.03,2809.00,599.69,598.18,25.57,0000 0000 0000 0000 000000
2018-06-17 07:46:16,0.00,2.35,0.00,22.61,25.92,28.64,14.03,49.00,1019.55,2031.99,2499.56,2418.02,2809.00,600.02,598.57,25.62,0000 0000 0000 0000 000000
2018-06-17 07:51:17,0.01,2.35,0.00,22.63,25.94,28.64,13.98,48.96,1019.55,2031.99,2499.19,2418.00,2808.99,599.88,598.37,25.67,0000 0000 0000 0000 000000
2018-06-17 07:56:19,-0.00,2.35,0.00,22.67,25.96,28.67,13.98,49.00,1019.47,2031.97,2499.01,2418.00,2808.98,599.89,598.25,25.72,0000 0000 0000 0000 000000
2018-06-17 08:01:21,-0.01,2.35,0.00,22.71,25.99,28.70,13.96,49.03,1019.14,2031.91,2499.01,2418.00,2808.94,599.84,597.88,25.77,0000 0000 0000 0000 000000
2018-06-17 08:06:22,-0.01,2.35,0.00,22.73,26.01,28.72,13.97,49.08,1019.07,2031.81,2499.00,2417.98,2808.81,599.78,597.89,25.82,0000 0000 0000 0000 000000
2018-06-17 08:11:23,-0.02,2.35,0.00,22.77,26.03,28.74,13.96,49.05,1019.06,2031.44,2499.00,2417.88,2808.18,599.66,597.57,25.87,0000 0000 0000 0000 000000
2018-06-17 08:16:24,-0.00,2.35,0.00,22.78,26.06,28.78,14.03,49.02,1019.06,2031.17,2498.97,2417.46,2808.02,599.64,597.57,25.92,0000 0000 0000 0000 000000
2018-06-17 08:21:26,0.00,2.35,0.00,22.82,26.08,28.80,13.97,49.02,1019.05,2031.05,2498.91,2417.08,2808.00,600.35,598.12,25.97,0000 0000 0000 0000 000000
2018-06-17 08:26:27,0.00,2.35,0.00,22.84,26.11,28.81,13.96,48.85,1018.99,2031.02,2498.78,2417.04,2808.00,600.11,597.82,26.02,0000 0000 0000 0000 000000
2018-06-17 08:31:29,0.01,2.35,0.00,22.87,26.13,28.83,13.99,48.91,1018.79,2031.01,2498.40,2417.01,2807.99,600.02,597.63,26.07,0000 0000 0000 0000 000000
2018-06-17 08:36:30,0.00,2.35,0.00,22.89,26.15,28.86,14.03,48.98,1018.83,2031.00,2498.03,2417.00,2807.95,599.77,597.29,26.12,0000 0000 0000 0000 000000
2018-06-17 08:41:31,0.00,2.35,0.00,22.92,26.18,28.90,13.99,48.93,1018.95,2031.00,2498.00,2417.00,2807.86,600.09,597.59,26.17,0000 0000 0000 0000 000000
2018-06-17 08:46:33,0.15,2.35,0.00,22.94,26.20,28.90,13.94,48.91,1018.99,2031.00,2497.22,2416.03,2806.34,599.89,597.38,26.22,0000 0000 0000 0000 000000
2018-06-17 08:51:34,0.03,2.36,0.00,22.97,26.22,28.92,13.95,49.02,1018.96,2030.97,2496.06,2415.00,2805.02,599.49,596.92,26.27,0000 0000 0000 0000 000000
2018-06-17 08:56:36,-0.01,2.36,0.00,23.01,26.25,28.95,13.95,48.96,1019.02,2030.91,2496.02,2414.97,2805.00,599.71,597.22,26.32,0000 0000 0000 0000 000000
2018-06-17 09:01:37,-0.02,2.36,0.00,23.05,26.27,28.96,13.91,48.90,1019.05,2030.65,2496.01,2414.84,2804.98,599.62,596.86,26.37,0000 0000 0000 0000 000000
2018-06-17 09:06:38,-0.02,2.35,0.00,23.08,26.30,28.98,14.00,48.83,1019.06,2030.32,2496.00,2414.61,2804.97,600.17,597.54,26.42,0000 0000 0000 0000 000000
2018-06-17 09:11:39,0.01,2.35,0.00,23.10,26.32,29.00,13.95,48.75,1019.06,2030.05,2496.00,2414.06,2804.36,599.96,597.14,26.47,0000 0000 0000 0000 000000
2018-06-17 09:16:41,0.00,2.35,0.00,23.12,26.35,29.05,13.94,48.74,1019.06,2030.02,2495.97,2414.01,2804.04,599.74,597.05,26.52,0000 0000 0000 0000 000000
2018-06-17 09:21:42,0.02,2.35,0.00,23.15,26.38,29.06,14.01,48.97,1019.06,2030.00,2495.48,2414.00,2804.00,599.77,596.85,26.57,0000 0000 0000 0000 000000
2018-06-17 09:26:43,0.00,2.36,0.00,23.18,26.41,29.09,13.96,48.70,1019.06,2030.00,2495.02,2413.98,2803.99,600.10,597.22,26.62,0000 0000 0000 0000 000000
2018-06-17 09:31:44,0.01,2.36,0.00,23.20,26.43,29.11,13.99,48.75,1019.06,2029.99,2495.00,2413.72,2803.85,600.35,597.47,26.67,0000 0000 0000 0000 000000
2018-06-17 09:36:45,0.02,2.36,0.00,23.23,26.46,29.13,13.97,48.85,1019.02,2029.97,2495.00,2413.21,2803.30,600.25,597.27,26.72,0000 0000 0000 0000 000000
2018-06-17 09:41:47,0.00,2.36,0.00,23.26,26.48,29.16,13.98,48.73,1018.90,2029.94,2494.99,2413.03,2803.05,599.89,596.75,26.78,0000 0000 0000 0000 000000
2018-06-17 09:46:48,-0.03,2.36,0.00,23.28,26.51,29.18,13.98,48.73,1018.86,2029.74,2494.98,2413.01,2803.01,599.62,596.46,26.83,0000 0000 0000 0000 000000
2018-06-17 09:51:49,-0.04,2.36,0.00,23.32,26.54,29.22,13.90,48.77,1019.00,2029.27,2494.87,2413.00,2803.00,599.87,596.70,26.88,0000 0000 0000 0000 000000
2018-06-17 09:56:50,0.00,2.35,0.00,23.36,26.56,29.24,13.93,48.93,1019.04,2029.08,2494.33,2412.99,2802.98,599.87,596.55,26.93,0000 0000 0000 0000 000000
2018-06-17 10:01:52,-0.00,2.35,0.00,23.39,26.59,29.27,13.88,48.75,1019.03,2029.01,2494.10,2412.97,2802.93,599.74,596.44,26.98,0000 0000 0000 0000 000000
2018-06-17 10:06:53,0.00,2.35,0.00,23.44,26.61,29.31,13.90,48.69,1019.03,2029.00,2494.06,2412.90,2802.66,600.04,596.61,27.03,0000 0000 0000 0000 000000
2018-06-17 10:11:54,0.04,2.36,0.00,23.47,26.65,29.32,13.95,48.75,1019.01,2029.00,2494.01,2412.38,2802.14,600.04,596.54,27.08,0000 0000 0000 0000 000000
2018-06-17 10:16:54,0.00,2.36,0.00,23.51,26.68,29.36,13.91,48.87,1019.05,2029.00,2493.99,2412.01,2802.00,599.81,596.27,27.13,0000 0000 0000 0000 000000
2018-06-17 10:21:56,-0.00,2.36,0.00,23.54,26.71,29.39,13.91,48.73,1019.06,2028.93,2493.98,2412.00,2801.97,599.67,596.16,27.18,0000 0000 0000 0000 000000
2018-06-17 10:26:57,-0.02,2.36,0.00,23.56,26.75,29.43,13.98,48.73,1019.06,2028.73,2493.95,2412.00,2801.80,600.44,596.77,27.23,0000 0000 0000 0000 000000
2018-06-17 10:31:58,-0.03,2.35,0.00,23.59,26.78,29.42,13.88,48.67,1019.07,2028.23,2493.75,2411.98,2801.23,599.80,596.14,27.28,0000 0000 0000 0000 000000
2018-06-17 10:37:00,0.01,2.35,0.00,23.63,26.82,29.37,14.00,48.77,1019.07,2028.03,2493.24,2411.71,2801.02,600.24,596.43,27.33,0000 0000 0000 0000 000000
2018-06-17 10:42:01,0.02,2.36,0.00,23.65,26.86,29.40,13.88,48.76,1019.06,2028.00,2493.05,2411.12,2801.00,599.95,595.88,27.38,0000 0000 0000 0000 000000
2018-06-17 10:47:02,0.00,2.36,0.00,23.67,26.90,29.54,13.96,48.73,1019.06,2028.00,2493.00,2411.01,2800.91,599.77,595.93,27.43,0000 0000 0000 0000 000000
2018-06-17 10:52:04,0.01,2.36,0.00,23.67,26.94,29.66,13.98,48.73,1019.06,2027.93,2493.00,2410.99,2800.21,600.46,596.53,27.48,0000 0000 0000 0000 000000
2018-06-17 10:57:05,-0.06,2.35,0.00,23.67,26.99,29.76,13.95,48.69,1019.06,2027.37,2492.98,2410.84,2800.01,600.05,596.16,27.53,0000 0000 0000 0000 000000
2018-06-17 11:02:07,-0.01,2.35,0.00,23.67,27.03,29.97,13.99,48.57,1019.06,2027.04,2492.88,2410.35,2799.99,600.27,596.38,27.58,0000 0000 0000 0000 000000
2018-06-17 11:07:09,0.02,2.35,0.00,23.67,27.08,30.26,13.95,48.67,1019.06,2027.00,2492.31,2410.02,2799.93,599.91,596.11,27.63,0000 0000 0000 0000 000000
2018-06-17 11:12:10,0.02,2.36,0.00,23.63,27.12,30.27,13.95,48.67,1019.06,2027.00,2492.03,2410.00,2799.33,599.92,596.22,27.68,0000 0000 0000 0000 000000
2018-06-17 11:17:11,0.00,2.36,0.00,23.59,27.17,30.21,13.96,48.56,1019.06,2026.98,2492.00,2409.99,2799.03,600.01,596.30,27.73,0000 0000 0000 0000 000000
2018-06-17 11:22:13,-0.02,2.36,0.00,23.53,27.21,30.10,13.96,48.71,1019.05,2026.85,2491.99,2409.92,2799.00,600.12,596.56,27.78,0000 0000 0000 0000 000000
2018-06-17 11:27:14,-0.03,2.35,0.00,23.48,27.24,30.06,13.96,48.59,1019.06,2026.32,2491.91,2409.45,2798.95,599.78,596.40,27.83,0000 0000 0000 0000 000000
2018-06-17 11:32:15,-0.00,2.35,0.00,23.43,27.26,30.09,14.00,48.58,1019.06,2026.04,2491.56,2409.08,2798.88,600.16,596.66,27.88,0000 0000 0000 0000 000000
2018-06-17 11:37:16,0.02,2.35,0.00,23.38,27.29,30.25,13.95,48.66,1019.04,2026.01,2491.12,2409.03,2798.44,599.72,596.43,27.93,0000 0000 0000 0000 000000
2018-06-17 11:42:18,0.00,2.36,0.00,23.30,27.30,30.52,14.01,48.74,1019.02,2026.00,2491.02,2409.01,2798.11,599.82,596.66,27.98,0000 0000 0000 0000 000000
2018-06-17 11:47:20,0.00,2.36,0.00,23.25,27.30,30.81,14.01,48.65,1019.05,2025.99,2491.00,2409.00,2798.04,599.92,596.89,28.03,0000 0000 0000 0000 000000
2018-06-17 11:52:21,0.00,2.36,0.00,23.19,27.30,30.83,14.12,48.87,1019.00,2025.99,2491.01,2409.00,2798.02,600.33,597.41,28.08,0000 0000 0000 0000 000000
2018-06-17 11:57:22,0.00,2.36,0.00,23.14,27.30,30.76,14.08,48.77,1018.78,2025.99,2491.00,2409.00,2798.03,600.51,597.52,28.13,0000 0000 0000 0000 000000
2018-06-17 12:02:23,0.00,2.36,0.00,23.08,27.28,30.64,14.14,48.79,1018.61,2025.99,2491.00,2409.02,2798.06,600.34,597.22,28.18,0000 0000 0000 0000 000000
2018-06-17 12:07:25,-0.00,2.36,0.00,23.04,27.26,30.57,14.01,48.78,1018.58,2025.99,2491.00,2409.01,2798.09,599.99,597.16,28.23,0000 0000 0000 0000 000000
2018-06-17 12:12:26,0.00,2.36,0.00,22.99,27.24,30.50,14.05,48.82,1018.59,2025.99,2491.00,2409.02,2798.13,599.80,597.00,28.28,0000 0000 0000 0000 000000
2018-06-17 12:17:27,-0.00,2.35,0.00,22.95,27.22,30.40,14.06,48.76,1018.58,2025.99,2491.01,2409.02,2798.40,600.01,597.30,28.33,0000 0000 0000 0000 000000
2018-06-17 12:22:29,0.00,2.35,0.00,22.91,27.19,30.33,14.09,48.78,1018.57,2025.99,2491.00,2409.02,2798.35,600.18,597.34,28.38,0000 0000 0000 0000 000000
2018-06-17 12:27:30,0.00,2.36,0.00,22.88,27.16,30.30,14.03,48.77,1018.57,2026.01,2491.00,2409.01,2798.18,600.03,597.46,28.43,0000 0000 0000 0000 000000
2018-06-17 12:32:31,-0.01,2.36,0.00,22.83,27.14,30.25,14.01,48.77,1018.57,2026.03,2491.00,2409.06,2798.50,599.97,597.41,28.48,0000 0000 0000 0000 000000
2018-06-17 12:37:33,-0.02,2.35,0.00,22.81,27.11,30.19,13.95,48.77,1018.57,2026.16,2491.06,2409.65,2798.95,599.86,597.34,28.53,0000 0000 0000 0000 000000
2018-06-17 12:42:34,0.01,2.35,0.00,22.78,27.07,30.12,14.12,48.77,1018.54,2026.34,2491.19,2409.92,2798.99,600.43,597.92,28.58,0000 0000 0000 0000 000000
2018-06-17 12:47:35,0.04,2.36,0.00,22.75,27.04,30.09,14.03,48.74,1018.32,2026.80,2491.14,2409.95,2798.99,600.16,597.74,28.63,0000 0000 0000 0000 000000
2018-06-17 12:52:36,0.00,2.36,0.00,22.72,27.01,30.07,14.00,48.58,1018.21,2026.95,2491.26,2409.99,2798.99,599.89,597.49,28.68,0000 0000 0000 0000 000000
2018-06-17 12:57:37,-0.01,2.36,0.00,22.69,26.97,30.04,14.07,48.69,1018.14,2026.99,2491.80,2409.99,2799.06,600.14,597.66,28.73,0000 0000 0000 0000 000000